{"data":{"norad_id":53393,"epoch":"2026-09-20T03:38:29.137632Z","epoch_age_seconds":105409,"freshness":"FRESH","line1":"1 53393U 22097F   26263.15172613  .00000461  00000+0  24124-4 0  9995","line2":"2 53393  53.1608 323.0803 0001153  89.4363 270.6772 15.35398517228134","mean_motion":15.35398517,"eccentricity":0.0001153,"inclination_deg":53.1608,"raan_deg":323.0803,"arg_perigee_deg":89.4363,"mean_anomaly_deg":270.6772,"bstar":2.4124e-5,"rev_number":22813,"period_min":93.786725990435,"perigee_km":458.9486388721,"apogee_km":460.52545262705,"semimajor_km":6837.8740457496,"source":"CELESTRAK","updated_at":"2026-09-20T09:00:40.223756Z"}}